{"data":{"norad_id":40349,"intl_designator":"2014-083B","name":"O3B FM11","alt_names":[],"object_type":"PAYLOAD","status":"ACTIVE","operator":null,"country":"O3B","launch_date":"2014-12-18","launch_site_code":"FRGUI","launch_vehicle":null,"mission":null,"orbit_class":"UNKNOWN","rcs_meters":12.2583,"size_class":null,"mass_kg":null,"dimensions":null,"purposes":["comms"],"wikipedia_slug":null,"has_3d_model":false,"image_url":null,"decayed_at":null,"tle_current":{"epoch":"2026-05-24T23:38:01.613760Z","epoch_age_seconds":73684,"freshness":"FRESH","line1":"1 40349U 14083B   26144.98474090 -.00000024  00000+0  00000+0 0  9999","line2":"2 40349   0.0566 357.0139 0002798  50.8978 312.1115  5.00115573208753","mean_motion":5.00115573,"eccentricity":0.0002798,"inclination_deg":0.0566,"raan_deg":357.0139,"arg_perigee_deg":50.8978,"mean_anomaly_deg":312.1115,"bstar":0,"rev_number":20875,"period_min":287.93344533584,"perigee_km":8061.8473743052,"apogee_km":8069.93025115,"semimajor_km":14444.025812728,"source":"CELESTRAK","updated_at":"2026-05-25T13:38:14.510735Z"}}}